Location: ???????
(55.3754°N, 39.3545°E)
Time: 18:13:41
(UTC+00:00)

Spot 4 - Pass Details

Date: 14 April 2026
Orbit: 698 x 714 km, 98.2° (Epoch: 16 May)

Event Time Altitude Azimuth Distance (km) Brightness Sun altitude
Exits shadow 20:32:21 76° 194° (SSW) 727 3.6 -24.1°
Maximum altitude 20:32:41 83° 253° (WSW) 712 3.7 -24.1°
Drops below altitude 10° 20:37:28 10° 343° (NNW) 2,174 7.4 -24.3°
Sets 20:39:44 0° 344° (NNW) 3,097 8.6 -24.4°
